[[{"header":{"parameterUnit":"m.s-1","parameterCategory":1,"la1":30.2991,"la2":30.254,"lo1":-89.0895,"lo2":-89.0444,"dy":0.0017,"dx":0.0017,"nx":28,"ny":28,"refTime":"2025-09-02T09:00:00:Z","depth":0,"parameterNumber":2,"parameterNumberName":"U-component_of_WINDS"},"data":[0,0,0,0,0,0,0,0,0,0,0,0,0,0,0,0,0,0,0,0,0,0,0,0,0,0,0,0,0,0,0,0,0,0,0,0,0,0,0,0,0,0,0,0,0,0,0,0,0,0,0,0,0,0,0,0,0,0,-3.7219,-3.7218,0,-3.7171,-3.717,-3.717,-3.7042,-3.7039,-3.7037,-3.7034,-3.6988,-3.699,-3.6991,0,0,0,0,0,0,0,0,0,0,0,0,0,-3.7204,-3.7205,-3.7219,-3.7218,-3.7218,-3.7171,-3.717,-3.717,-3.7043,-3.7039,-3.7036,-3.7033,-3.6988,-3.6989,-3.6991,0,0,0,0,0,0,0,0,0,0,0,0,0,-3.7189,-3.7205,-3.7219,-3.7149,-3.7142,-3.7171,-3.717,-3.7169,-3.7043,-3.7039,-3.7035,-3.7031,-3.6987,-3.6989,-3.6991,-3.7086,0,0,-3.6997,-3.6998,0,0,0,0,0,0,0,0,-3.719,-3.719,-3.7159,-3.7153,-3.7146,-3.7108,-3.7148,-3.7142,-3.7044,-3.7081,-3.7034,-3.7029,-3.7032,-3.703,-3.703,-3.7084,-3.7082,-3.6998,-3.6999,-3.7,-3.7,0,0,0,0,0,0,0,-3.7191,-3.7191,-3.72,-3.7159,-3.7151,-3.7121,-3.7114,-3.7146,-3.708,-3.7077,-3.7068,-3.7064,-3.7027,-3.7028,-3.7028,-3.7081,-3.6998,-3.6999,-3.7001,-3.7001,-3.7212,-3.7217,0,0,0,0,0,0,-3.7202,-3.7193,-3.7201,-3.7198,-3.7158,-3.7124,-3.7117,-3.7125,-3.7079,-3.7068,-3.7067,-3.7058,-3.7027,-3.7026,-3.7026,-3.7135,-3.7,-3.7002,-3.7003,-3.7208,-3.7213,-3.7218,0,0,0,0,0,0,-3.7202,-3.7204,-3.7203,-3.7193,-3.7191,-3.7129,-3.7139,-3.7126,-3.7127,-3.7072,-3.706,-3.7081,-3.7024,-3.7023,-3.7072,-3.7131,-3.7002,-3.7004,-3.7203,-3.721,-3.7216,-3.7353,0,0,0,0,0,0,-3.7202,-3.7205,-3.7239,-3.7195,-3.7192,-3.725,-3.7142,-3.7128,-3.713,-3.7117,-3.7081,-3.7071,-3.702,-3.707,-3.7074,-3.7132,-3.7006,-3.7197,-3.7206,-3.7214,-3.7343,-3.7364,-3.7381,0,0,0,0,0,-3.7202,-3.728,-3.7241,-3.7243,-3.7233,-3.7253,-3.7251,-3.7191,-3.7135,-3.717,-3.7135,-3.7072,-3.7124,-3.7076,-3.708,-3.7139,-3.7193,-3.7203,-3.7213,-3.7334,-3.736,-3.7381,0,0,0,0,0,0,-3.7333,-3.7273,-3.7229,-3.7295,-3.728,-3.7232,-3.7273,-3.7219,-3.7221,-3.7209,-3.7135,-3.7128,-3.7188,-3.7168,-3.7115,-3.7229,-3.7149,-3.716,-3.724,-3.7263,-3.7282,-3.7285,-3.7007,0,0,0,0,0,-3.737,-3.739,-3.7336,-3.7399,-3.7394,-3.7336,-3.7342,-3.7297,-3.7279,-3.7272,-3.7241,-3.7227,-3.724,-3.725,-3.7259,-3.734,-3.7331,-3.7383,-3.7402,-3.7418,-3.7428,-3.7471,-3.7494,-3.7251,-3.7251,-3.725,0,0,-3.7445,-3.7415,-3.7432,-3.7425,-3.7408,-3.7432,-3.7331,-3.736,-3.7378,-3.7277,-3.7321,-3.7298,-3.7278,-3.7344,-3.7371,-3.7329,-3.7494,-3.743,-3.7443,-3.7445,-3.7484,-3.7507,-3.7527,-3.7257,-3.7256,-3.7255,0,0,-3.7595,-3.7573,-3.7624,-3.761,-3.7586,-3.7546,-3.7559,-3.7519,-3.75,-3.7543,-3.7468,-3.7489,-3.7513,-3.7502,-3.75,-3.7648,-3.7591,-3.7654,-3.7753,-3.7796,-3.7815,-3.7832,-3.7886,-3.7906,-3.7664,-3.7665,-3.7665,0,-3.7692,-3.7724,-3.7657,-3.7692,-3.7692,-3.7601,-3.7653,-3.7643,-3.7624,-3.7626,-3.758,-3.7609,-3.7589,-3.7652,-3.7688,-3.7689,-3.7702,-3.7657,-3.7817,-3.7833,-3.7848,-3.7899,-3.7919,-3.7672,-3.7672,-3.7671,-3.767,0,-3.7845,-3.7869,-3.7913,-3.7897,-3.7901,-3.7945,-3.7886,-3.7899,-3.7855,-3.7821,-3.7868,-3.7841,-3.7843,-3.7855,-3.7811,-3.7912,-3.7887,-3.7831,-3.7748,-3.788,-3.7927,-3.7946,-3.7684,-3.7681,-3.7678,-3.7677,0,0,-3.8075,-3.8022,-3.8039,-3.8032,-3.7999,-3.8017,-3.8057,-3.8059,-3.8073,-3.8064,-3.8096,-3.812,-3.8067,-3.8065,-3.802,-3.8057,-3.8179,-3.7995,-3.7994,-3.8031,-3.829,-3.8333,-3.8357,-3.814,-3.8144,-3.8146,-3.8292,0,-3.8217,-3.8281,-3.8223,-3.8299,-3.8322,-3.8237,-3.8272,-3.8258,-3.8228,-3.8244,-3.8211,-3.8229,-3.8158,-3.8156,-3.8189,-3.8157,-3.823,-3.8145,-3.8172,-3.8173,-3.818,-3.8381,-3.8426,-3.8564,-3.8309,-3.8312,-3.8315,0,-3.8391,-3.8389,-3.8468,-3.8432,-3.8439,-3.8472,-3.847,-3.8486,-3.8468,-3.8444,-3.8443,-3.8387,-3.8426,-3.8346,-3.8399,-3.8343,-3.8351,-3.8337,-3.8341,-3.8341,-3.8252,-3.8387,-3.8607,-3.8628,-3.8342,-3.834,-3.8338,0,-3.8552,-3.8569,-3.8619,-3.8614,-3.8574,-3.8599,-3.8584,-3.8562,-3.8568,-3.8567,-3.857,-3.8574,-3.8577,-3.8582,-3.8531,-3.8477,-3.8591,-3.8506,-3.8574,-3.8575,-3.8601,-3.86,-3.8826,-3.8606,-3.8606,-3.8605,-3.8605,0,-3.8716,-3.8768,-3.8691,-3.8721,-3.8777,-3.8711,-3.8769,-3.8745,-3.8727,-3.8752,-3.868,-3.8706,-3.8636,-3.8655,-3.8615,-3.8666,-3.8668,-3.865,-3.8639,-3.8657,-3.8659,-3.8661,-3.865,-3.8611,-3.861,-3.8608,-3.8608,0,-3.8905,-3.8855,-3.8904,-3.8862,-3.8853,-3.8896,-3.8861,-3.8889,-3.8855,-3.8888,-3.8892,-3.884,-3.8859,-3.8808,-3.8819,-3.8792,-3.8866,-3.8839,-3.8872,-3.8864,-3.8935,-3.893,-3.917,-3.9199,-3.896,-3.8963,-3.8965,0,-3.9014,-3.9051,-3.9014,-3.9026,-3.9014,-3.9034,-3.9039,-3.8977,-3.8986,-3.897,-3.9,-3.9013,-3.902,-3.9055,-3.9018,-3.9027,-3.9,-3.9084,-3.9001,-3.9019,-3.9003,-3.9001,-3.9005,-3.9101,-3.9104,-3.9107,-3.9108,0,-3.9212,-3.9186,-3.9196,-3.9199,-3.9208,-3.9207,-3.9201,-3.9215,-3.9149,-3.9163,-3.9181,-3.9187,-3.9199,-3.9213,-3.9214,-3.9199,-3.9144,-3.9135,-3.9151,-3.917,-3.9188,-3.918,-3.892,-3.913,-3.9128,-3.9126,-3.9125,-3.9124,-3.9364,-3.9394,-3.9373,-3.9388,-3.9377,-3.9374,-3.9398,-3.9368,-3.9382,-3.9386,-3.9349,-3.9376,-3.9359,-3.9355,-3.9346,-3.9367,-3.9329,-3.9352,-3.9358,-3.9365,-3.9377,-3.9185,-3.9367,-3.9367,-3.9366,-3.9365,-3.9365,0,-3.9559,-3.9542,-3.9556,-3.9551,-3.9563,-3.9509,-3.95,-3.9515,-3.9539,-3.9528,-3.9536,-3.9559,-3.9573,-3.9538,-3.9547,-3.9571,-3.9546,-3.9576,-3.9574,-3.9572,-3.941,-3.9396,-3.9596,-3.9596,-3.9596,-3.9596,-3.9596,-3.9596,-3.9662,-3.9711,-3.9683,-3.9727,-3.9709,-3.9734,-3.9734,-3.9732,-3.9723,-3.9751,-3.9762,-3.9739,-3.9719,-3.9727,-3.9738,-3.9728,-3.9735,-3.9774,-3.9755,-3.9605,-3.9583,-3.9561,-3.9547,-3.9776,-3.9776,-3.9914,-3.9915,-3.9916]},{"header":{"parameterUnit":"m.s-1","parameterCategory":1,"la1":30.2991,"la2":30.254,"lo1":-89.0895,"lo2":-89.0444,"dy":0.0017,"dx":0.0017,"nx":28,"ny":28,"refTime":"2025-09-02T09:00:00:Z","depth":0,"parameterNumber":3,"parameterNumberName":"V-component_of_WINDS"},"data":[0,0,0,0,0,0,0,0,0,0,0,0,0,0,0,0,0,0,0,0,0,0,0,0,0,0,0,0,0,0,0,0,0,0,0,0,0,0,0,0,0,0,0,0,0,0,0,0,0,0,0,0,0,0,0,0,0,0,1.3752,1.3751,0,1.37,1.37,1.3699,1.3707,1.3708,1.3709,1.371,1.3651,1.3648,1.3646,0,0,0,0,0,0,0,0,0,0,0,0,0,1.3851,1.3849,1.3752,1.3751,1.375,1.37,1.37,1.3699,1.3707,1.3708,1.3709,1.371,1.3651,1.3649,1.3646,0,0,0,0,0,0,0,0,0,0,0,0,0,1.3805,1.3849,1.3752,1.3749,1.3748,1.37,1.37,1.3699,1.3707,1.3708,1.371,1.3711,1.3652,1.3649,1.3645,1.3596,0,0,1.3634,1.3633,0,0,0,0,0,0,0,0,1.3807,1.3801,1.375,1.3749,1.3748,1.3712,1.3713,1.3664,1.3706,1.3722,1.371,1.3711,1.3669,1.3664,1.3652,1.3593,1.3591,1.3634,1.3632,1.363,1.3629,0,0,0,0,0,0,0,1.381,1.3803,1.3731,1.3749,1.3748,1.3748,1.3743,1.3704,1.3688,1.3721,1.3721,1.3716,1.3669,1.3655,1.365,1.359,1.3634,1.3631,1.3629,1.3627,1.3487,1.3486,0,0,0,0,0,0,1.3815,1.3806,1.3733,1.373,1.3782,1.3745,1.3739,1.3722,1.3689,1.3686,1.3714,1.3716,1.3661,1.3655,1.3648,1.3587,1.363,1.3627,1.3625,1.3489,1.3487,1.3485,0,0,0,0,0,0,1.3818,1.3809,1.3735,1.3768,1.3758,1.3742,1.3722,1.372,1.3706,1.3684,1.3681,1.3703,1.3661,1.3653,1.3609,1.3585,1.3625,1.3622,1.3491,1.3488,1.3486,1.3465,0,0,0,0,0,0,1.382,1.381,1.3792,1.3767,1.3757,1.3698,1.3721,1.3718,1.3701,1.3702,1.3673,1.3669,1.3662,1.3615,1.3606,1.3581,1.3619,1.3492,1.3489,1.3487,1.3468,1.3462,1.3458,0,0,0,0,0,1.3824,1.3787,1.3791,1.3782,1.3734,1.3697,1.369,1.3684,1.3699,1.368,1.3666,1.367,1.359,1.361,1.36,1.3574,1.3494,1.349,1.3487,1.347,1.3463,1.3458,0,0,0,0,0,0,1.3806,1.3783,1.3788,1.3742,1.3721,1.3698,1.3674,1.3678,1.3651,1.3653,1.3645,1.3639,1.3593,1.358,1.3602,1.3524,1.3544,1.3538,1.3534,1.3528,1.3523,1.3526,1.3616,0,0,0,0,0,1.3797,1.377,1.3751,1.3712,1.3702,1.369,1.3673,1.3671,1.3648,1.3639,1.3622,1.3598,1.3568,1.3547,1.3518,1.3467,1.3459,1.3444,1.3439,1.3435,1.3429,1.34,1.3392,1.3474,1.3474,1.3474,0,0,1.3777,1.3762,1.3745,1.3709,1.3692,1.3663,1.3682,1.365,1.3628,1.3633,1.3591,1.3578,1.3551,1.3503,1.348,1.3489,1.3406,1.3431,1.3428,1.3424,1.3396,1.3388,1.3381,1.3471,1.3472,1.3472,0,0,1.3726,1.3713,1.3678,1.3663,1.3639,1.3631,1.3623,1.36,1.3592,1.355,1.3554,1.3526,1.3474,1.3454,1.3437,1.3381,1.3383,1.3372,1.3344,1.3315,1.3309,1.3303,1.3281,1.3273,1.3367,1.3367,1.3367,0,1.3704,1.3661,1.366,1.3628,1.3611,1.3618,1.3582,1.3566,1.3533,1.3521,1.3532,1.3467,1.345,1.3397,1.3383,1.337,1.3359,1.3373,1.3311,1.3305,1.3299,1.3278,1.327,1.3365,1.3365,1.3365,1.3366,0,1.3634,1.3605,1.358,1.355,1.3531,1.3497,1.3489,1.3469,1.3469,1.346,1.3416,1.3396,1.3362,1.335,1.3349,1.3297,1.3303,1.3313,1.3332,1.329,1.327,1.3262,1.3363,1.3364,1.3364,1.3364,0,0,1.3566,1.3539,1.3529,1.3516,1.3491,1.3467,1.3434,1.3403,1.3386,1.3364,1.3333,1.329,1.33,1.3281,1.3277,1.3253,1.3207,1.3266,1.3265,1.3253,1.3146,1.3137,1.3128,1.321,1.3209,1.3208,1.3148,0,1.3511,1.3453,1.3452,1.3398,1.337,1.3377,1.3348,1.3328,1.3319,1.3293,1.3282,1.3251,1.3267,1.3255,1.3232,1.3218,1.3185,1.3223,1.3179,1.3178,1.3183,1.3117,1.3107,1.3051,1.314,1.3139,1.3138,0,1.3438,1.3415,1.3359,1.3339,1.3327,1.3301,1.3273,1.3248,1.3226,1.3222,1.3202,1.3203,1.3166,1.3189,1.3138,1.3163,1.3146,1.3137,1.3135,1.3128,1.3153,1.3106,1.3034,1.3024,1.3126,1.3127,1.3127,0,1.3391,1.3347,1.3308,1.3297,1.3273,1.3254,1.3242,1.3222,1.3204,1.318,1.3167,1.3138,1.3121,1.3098,1.309,1.3109,1.3039,1.3062,1.3031,1.3031,1.3013,1.3014,1.2934,1.3007,1.3007,1.3007,1.3008,0,1.3328,1.3292,1.3287,1.3262,1.3223,1.3221,1.3182,1.3172,1.3154,1.3126,1.3131,1.3105,1.3098,1.3069,1.3063,1.3021,1.3014,1.3007,1.3005,1.3004,1.3005,1.299,1.2993,1.3005,1.3006,1.3006,1.3006,0,1.3267,1.3263,1.322,1.3202,1.3197,1.3168,1.3152,1.3127,1.312,1.3085,1.3076,1.3064,1.3031,1.3023,1.2983,1.2979,1.2927,1.2931,1.2935,1.2934,1.2903,1.2905,1.2809,1.2796,1.288,1.2879,1.2879,0,1.3225,1.3199,1.3179,1.3162,1.315,1.3123,1.3105,1.3103,1.3084,1.3058,1.3036,1.3005,1.2979,1.2925,1.2911,1.2881,1.2881,1.285,1.2876,1.2877,1.2878,1.2878,1.2874,1.2844,1.2843,1.2842,1.2842,0,1.3151,1.315,1.3126,1.31,1.308,1.3059,1.3039,1.3024,1.302,1.2998,1.2966,1.2946,1.2907,1.2874,1.2844,1.283,1.2833,1.2834,1.2825,1.2822,1.2825,1.2821,1.2918,1.2835,1.2836,1.2836,1.2837,1.2837,1.3096,1.3073,1.3055,1.3027,1.3013,1.2995,1.2971,1.2962,1.2936,1.2905,1.2906,1.287,1.2849,1.2809,1.2794,1.2764,1.2773,1.2761,1.2757,1.2753,1.2749,1.2833,1.2759,1.2759,1.2759,1.2759,1.276,0,1.302,1.3009,1.2984,1.2958,1.2936,1.2946,1.2924,1.2904,1.2874,1.2855,1.283,1.2793,1.2762,1.2747,1.2716,1.2695,1.2696,1.2687,1.2686,1.2683,1.2744,1.2754,1.2686,1.2686,1.2686,1.2686,1.2686,1.2687,1.2977,1.2937,1.2935,1.2888,1.2877,1.2844,1.2831,1.2813,1.2799,1.2757,1.2732,1.2724,1.2706,1.2674,1.2646,1.2642,1.2629,1.2618,1.2615,1.2671,1.2679,1.2686,1.2695,1.2616,1.2616,1.2556,1.2555,1.2555]}]]